| time (UTC) | temp C | wind direction | speed KPH | gust KPH | rain 1hr cm | rain 24hr cm | rain mn cm | humidity % | barometer mb |
| 20260906211515 | 24 | 135 | 3.2 | 9.7 | 0.00 | 0.00 | 0.00 | 39 | 1015.0 |
| 20260906210015 | 23 | 270 | 1.6 | 11.3 | 0.00 | 0.00 | 0.00 | 40 | 1014.8 |
| 20260906204535 | 24 | 135 | 3.2 | 16.1 | 0.00 | 0.00 | 0.00 | 39 | 1015.0 |
| 20260906203035 | 23 | 225 | 1.6 | 8.0 | 0.00 | 0.00 | 0.00 | 40 | 1014.8 |
| 20260906201515 | 23 | 180 | 3.2 | 9.7 | 0.00 | 0.00 | 0.00 | 39 | 1014.9 |
| 20260906200037 | 23 | 113 | 3.2 | 9.7 | 0.00 | 0.00 | 0.00 | 40 | 1015.0 |
| 20260906194517 | 24 | 225 | 1.6 | 8.0 | 0.00 | 0.00 | 0.00 | 39 | 1015.2 |
| 20260906193037 | 24 | 203 | 1.6 | 8.0 | 0.00 | 0.00 | 0.00 | 39 | 1015.3 |
| 20260906191517 | 23 | 180 | 1.6 | 8.0 | 0.00 | 0.00 | 0.00 | 39 | 1015.4 |
| 20260906190017 | 23 | 113 | 1.6 | 11.3 | 0.00 | 0.00 | 0.00 | 38 | 1015.6 |
| 20260906184557 | 23 | 248 | 1.6 | 8.0 | 0.00 | 0.00 | 0.00 | 41 | 1015.6 |
| 20260906183018 | 23 | 248 | 1.6 | 9.7 | 0.00 | 0.00 | 0.00 | 38 | 1015.5 |
| 20260906181517 | 23 | 0.0 | 6.4 | 0.00 | 0.00 | 0.00 | 37 | 1015.7 | |
| 20260906180037 | 23 | 113 | 3.2 | 8.0 | 0.00 | 0.00 | 0.00 | 38 | 1015.6 |
| 20260906174537 | 22 | 113 | 3.2 | 9.7 | 0.00 | 0.00 | 0.00 | 40 | 1015.7 |
| 20260906173017 | 22 | 113 | 1.6 | 14.5 | 0.00 | 0.00 | 0.00 | 39 | 1015.6 |
| 20260906171517 | 22 | 113 | 1.6 | 8.0 | 0.00 | 0.00 | 0.00 | 43 | 1015.6 |
| 20260906170017 | 21 | 113 | 1.6 | 8.0 | 0.00 | 0.00 | 0.00 | 46 | 1015.6 |
| 20260906164557 | 21 | 113 | 3.2 | 9.7 | 0.00 | 0.00 | 0.00 | 51 | 1015.6 |
| 20260906163037 | 20 | 113 | 1.6 | 6.4 | 0.00 | 0.00 | 0.00 | 54 | 1015.5 |
| 20260906161517 | 20 | 113 | 1.6 | 4.8 | 0.00 | 0.00 | 0.00 | 55 | 1015.5 |
| 20260906160015 | 19 | 0.0 | 4.8 | 0.00 | 0.00 | 0.00 | 59 | 1015.4 | |
| 20260906154517 | 18 | 68 | 1.6 | 6.4 | 0.00 | 0.00 | 0.00 | 59 | 1015.4 |
| 20260906153017 | 18 | 68 | 1.6 | 6.4 | 0.00 | 0.00 | 0.00 | 62 | 1015.4 |
| 20260906151517 | 17 | 68 | 1.6 | 8.0 | 0.00 | 0.00 | 0.00 | 63 | 1015.1 |
| 20260906150017 | 17 | 68 | 1.6 | 4.8 | 0.00 | 0.00 | 0.00 | 65 | 1015.1 |
| 20260906144517 | 16 | 68 | 1.6 | 4.8 | 0.00 | 0.00 | 0.00 | 66 | 1015.1 |
| 20260906143017 | 15 | 0.0 | 4.8 | 0.00 | 0.00 | 0.00 | 70 | 1014.8 | |
| 20260906141517 | 14 | 0.0 | 0.0 | 0.00 | 0.00 | 0.00 | 72 | 1014.4 | |
| 20260906140017 | 14 | 0.0 | 0.0 | 0.00 | 0.00 | 0.00 | 71 | 1014.5 | |
| 20260906134517 | 14 | 0.0 | 0.0 | 0.00 | 0.00 | 0.00 | 70 | 1014.4 | |
| 20260906133017 | 14 | 0.0 | 0.0 | 0.00 | 0.00 | 0.00 | 71 | 1014.4 | |
| 20260906131517 | 14 | 0.0 | 0.0 | 0.00 | 0.00 | 0.00 | 71 | 1014.2 | |
| 20260906130017 | 14 | 0.0 | 0.0 | 0.00 | 0.00 | 0.00 | 71 | 1014.3 | |
| 20260906124517 | 14 | 0.0 | 0.0 | 0.00 | 0.00 | 0.00 | 70 | 1014.2 | |
| 20260906123037 | 14 | 0.0 | 0.0 | 0.00 | 0.00 | 0.00 | 70 | 1014.3 | |
| 20260906121517 | 14 | 0.0 | 0.0 | 0.00 | 0.00 | 0.00 | 70 | 1014.5 | |
| 20260906120017 | 14 | 0.0 | 0.0 | 0.00 | 0.00 | 0.00 | 70 | 1014.5 | |
| 20260906114517 | 14 | 0.0 | 0.0 | 0.00 | 0.00 | 0.00 | 69 | 1014.6 | |
| 20260906113017 | 14 | 0.0 | 0.0 | 0.00 | 0.00 | 0.00 | 70 | 1014.6 | |
| 20260906111516 | 14 | 0.0 | 0.0 | 0.00 | 0.00 | 0.00 | 70 | 1014.5 | |
| 20260906110016 | 14 | 0.0 | 0.0 | 0.00 | 0.00 | 0.00 | 70 | 1014.4 | |
| 20260906104516 | 14 | 0.0 | 1.6 | 0.00 | 0.00 | 0.00 | 70 | 1014.4 | |
| 20260906103017 | 14 | 0.0 | 1.6 | 0.00 | 0.00 | 0.00 | 70 | 1014.3 | |
| 20260906101517 | 14 | 0.0 | 1.6 | 0.00 | 0.00 | 0.00 | 70 | 1014.3 | |
| 20260906100016 | 14 | 0.0 | 0.0 | 0.00 | 0.00 | 0.00 | 70 | 1014.4 | |
| 20260906094517 | 14 | 0.0 | 0.0 | 0.00 | 0.00 | 0.00 | 70 | 1014.5 | |
| 20260906093016 | 14 | 0.0 | 0.0 | 0.00 | 0.00 | 0.00 | 70 | 1014.4 | |
| 20260906091517 | 14 | 0.0 | 0.0 | 0.00 | 0.00 | 0.00 | 70 | 1014.4 | |
| 20260906090016 | 14 | 0.0 | 0.0 | 0.00 | 0.00 | 0.00 | 70 | 1014.6 | |
| 20260906084557 | 14 | 0.0 | 0.0 | 0.00 | 0.00 | 0.00 | 70 | 1014.7 | |
| 20260906083017 | 14 | 0.0 | 0.0 | 0.00 | 0.00 | 0.00 | 70 | 1014.9 | |
| 20260906081517 | 14 | 0.0 | 0.0 | 0.00 | 0.00 | 0.00 | 69 | 1014.9 | |
| 20260906080016 | 15 | 0.0 | 0.0 | 0.00 | 0.00 | 0.00 | 70 | 1015.0 | |
| 20260906074516 | 15 | 0.0 | 0.0 | 0.00 | 0.00 | 0.00 | 70 | 1015.2 | |
| 20260906073017 | 15 | 0.0 | 1.6 | 0.00 | 0.00 | 0.00 | 69 | 1015.3 | |
| 20260906071516 | 15 | 0.0 | 0.0 | 0.00 | 0.00 | 0.00 | 69 | 1015.4 | |
| 20260906070017 | 15 | 0.0 | 0.0 | 0.00 | 0.00 | 0.00 | 67 | 1015.5 | |
| 20260906064535 | 15 | 0.0 | 0.0 | 0.00 | 0.00 | 0.00 | 68 | 1015.6 | |
| 20260906063035 | 15 | 0.0 | 0.0 | 0.00 | 0.00 | 0.00 | 67 | 1015.6 | |
| 20260906061516 | 16 | 0.0 | 0.0 | 0.00 | 0.00 | 0.00 | 67 | 1015.6 | |
| 20260906060015 | 16 | 0.0 | 0.0 | 0.00 | 0.00 | 0.00 | 66 | 1015.6 | |
| 20260906054516 | 16 | 0.0 | 0.0 | 0.00 | 0.00 | 0.00 | 65 | 1015.6 | |
| 20260906053016 | 16 | 0.0 | 0.0 | 0.00 | 0.00 | 0.00 | 64 | 1015.6 | |
| 20260906051515 | 16 | 0.0 | 1.6 | 0.00 | 0.00 | 0.00 | 63 | 1015.7 | |
| 20260906050016 | 17 | 0.0 | 1.6 | 0.00 | 0.00 | 0.00 | 60 | 1015.5 | |
| 20260906044516 | 17 | 0.0 | 1.6 | 0.00 | 0.00 | 0.00 | 59 | 1015.5 | |
| 20260906043015 | 17 | 0.0 | 0.0 | 0.00 | 0.00 | 0.00 | 58 | 1015.3 | |
| 20260906041516 | 18 | 0.0 | 0.0 | 0.00 | 0.00 | 0.00 | 55 | 1015.3 | |
| 20260906040055 | 18 | 0.0 | 0.0 | 0.00 | 0.00 | 0.00 | 53 | 1015.3 | |
| 20260906034535 | 18 | 0.0 | 0.0 | 0.00 | 0.00 | 0.00 | 51 | 1015.2 | |
| 20260906033035 | 18 | 0.0 | 0.0 | 0.00 | 0.00 | 0.00 | 51 | 1014.6 | |
| 20260906031515 | 19 | 0.0 | 0.0 | 0.00 | 0.00 | 0.00 | 50 | 1014.7 | |
| 20260906030036 | 19 | 0.0 | 0.0 | 0.00 | 0.00 | 0.00 | 49 | 1014.4 | |
| 20260906024515 | 19 | 0.0 | 0.0 | 0.00 | 0.00 | 0.00 | 49 | 1014.4 | |
| 20260906023015 | 20 | 0.0 | 0.0 | 0.00 | 0.00 | 0.00 | 48 | 1014.3 | |
| 20260906021535 | 20 | 0.0 | 0.0 | 0.00 | 0.00 | 0.00 | 48 | 1014.4 | |
| 20260906020016 | 20 | 0.0 | 0.0 | 0.00 | 0.00 | 0.00 | 48 | 1014.4 | |
| 20260906014516 | 20 | 0.0 | 3.2 | 0.00 | 0.00 | 0.00 | 47 | 1014.5 | |
| 20260906013016 | 21 | 0.0 | 1.6 | 0.00 | 0.00 | 0.00 | 46 | 1014.4 | |
| 20260906011515 | 21 | 0.0 | 0.0 | 0.00 | 0.00 | 0.00 | 44 | 1014.6 | |
| 20260906010015 | 21 | 113 | 1.6 | 6.4 | 0.00 | 0.00 | 0.00 | 45 | 1014.6 |
| 20260906004535 | 21 | 113 | 1.6 | 8.0 | 0.00 | 0.00 | 0.00 | 44 | 1014.9 |
| 20260906003015 | 21 | 0.0 | 4.8 | 0.00 | 0.00 | 0.00 | 44 | 1014.9 | |
| 20260906001515 | 21 | 113 | 1.6 | 8.0 | 0.00 | 0.00 | 0.00 | 43 | 1015.0 |
| 20260906000015 | 22 | 135 | 1.6 | 9.7 | 0.00 | 0.00 | 0.00 | 43 | 1015.1 |
| 20260905234535 | 22 | 0.0 | 3.2 | 0.00 | 0.00 | 0.00 | 43 | 1015.0 | |
| 20260905233015 | 22 | 113 | 1.6 | 8.0 | 0.00 | 0.00 | 0.00 | 43 | 1015.1 |
| 20260905231537 | 22 | 113 | 3.2 | 8.0 | 0.00 | 0.00 | 0.00 | 42 | 1015.2 |
| 20260905230017 | 22 | 113 | 1.6 | 8.0 | 0.00 | 0.00 | 0.00 | 41 | 1015.4 |
| 20260905224516 | 22 | 113 | 1.6 | 8.0 | 0.00 | 0.00 | 0.00 | 41 | 1015.5 |
| 20260905223057 | 22 | 113 | 1.6 | 8.0 | 0.00 | 0.00 | 0.00 | 40 | 1015.4 |
| 20260905221517 | 22 | 113 | 1.6 | 6.4 | 0.00 | 0.00 | 0.00 | 39 | 1015.5 |
| 20260905220017 | 21 | 113 | 1.6 | 6.4 | 0.00 | 0.00 | 0.00 | 41 | 1015.7 |
| 20260905214517 | 21 | 0.0 | 4.8 | 0.00 | 0.00 | 0.00 | 42 | 1015.8 | |
| 20260905213017 | 21 | 113 | 1.6 | 8.0 | 0.00 | 0.00 | 0.00 | 44 | 1015.8 |